Tracking 28790 objects as of 19-Apr-2024
HD Live streaming from Space Station
objects crossing your sky now

ESTRELA DU SOL-TELSTAR14

Track ESTRELA DU SOL-TELSTAR14 now!
ESTRELA DU SOL-TELSTAR14 is classified as:


NORAD ID: 28137
Int'l Code: 2004-001A
Perigee: 36,169.2 km
Apogee: 36,235.0 km
Inclination: 9.5 °
Period: 1,457.0 minutes
Semi major axis: 42573 km
RCS: 12.5892 m2 (large)
Launch date: January 11, 2004
Source: United States/Brazil (USBZ)
Launch site: SEA LAUNCH (SEAL)

41 Ku-band transponders; direct-to-home video and internet to Brazil and North America.
Your satellite tracking list
Your tracking list is empty




NASA's NSSDC Master Catalog

Two Line Element Set (TLE):
1 28137U 04001A   24109.87499311 -.00000196  00000-0  00000-0 0  9991
2 28137   9.4521  50.9780 0007730 346.8846 246.8397  0.98832627 73788
Source of the keplerian elements: AFSPC